Location: Academy at Carrie F Thomas
(32.8490°N, 97.2053°W)
Time: 07:47:15
(UTC+00:00)

Cosmos 2228 Rocket - Pass Details

Date: 07 July 2022
Orbit: 618 x 651 km, 82.5° (Epoch: 14 August)

Event Time Altitude Azimuth Distance (km) Brightness Sun altitude
Rises 08:42:34 0° 13° (NNE) 2,923 7.6 -26.6°
Reaches altitude 10° 08:45:28 10° 33° (NNE) 2,018 6.7 -26.3°
Maximum altitude 08:48:29 18° 76° (ENE) 1,580 5.6 -25.9°
Drops below altitude 10° 08:51:29 10° 118° (ESE) 2,024 5.8 -25.6°
Enters shadow 08:52:35 - 128° (SE) 2,336 6.0 -25.4°
